WB5OMR-9 Weather Reports


time (UTC)temp
C
wind
direction
speed
KPH
gust
KPH
rain 1hr
cm
rain 24hr
cm
rain mn
cm
humidity
%
barometer
mb
20260502122825 10 0.0 0.0 0.00 0.94 0.00 89 1019.0
20260502121742 10 0.0 0.0 0.00 1.04 0.00 89 1019.0
20260502120741 10 0.0 0.0 0.00 1.19 0.00 89 1018.6
20260502115739 10 0.0 0.0 0.00 1.19 0.00 89 1018.6
20260502114738 10 0.0 0.0 0.00 1.19 0.00 89 1018.6
20260502113737 10 0.0 0.0 0.00 1.19 0.00 89 1018.3
20260502112736 10 0.0 0.0 0.00 1.19 0.00 89 1018.3
20260502111653 10 0.0 0.0 0.00 1.19 0.00 89 1018.3
20260502110651 10 0.0 0.0 0.00 1.19 0.00 89 1018.3
20260502105650 10 0.0 0.0 0.00 1.19 0.00 89 1018.3
20260502104649 10 0.0 0.0 0.00 1.19 0.00 89 1018.3
20260502103648 10 0.0 0.0 0.00 1.24 0.00 89 1018.3
20260502102647 10 0.0 0.0 0.00 1.40 0.00 89 1018.3
20260502101604 10 0.0 0.0 0.00 1.55 0.00 89 1018.3
20260502100552 10 0.0 0.0 0.00 2.18 0.00 89 1018.3
20260502090545 10 0.0 0.0 0.00 3.20 0.00 88 1017.6
20260502071358 11 0.0 0.0 0.00 4.60 0.00 86 1017.3
20260502070315 11 0.0 0.0 0.00 4.60 0.00 85 1016.9
20260502065232 12 0.0 0.0 0.00 4.67 0.00 84 1017.3
20260502064231 12 0.0 0.0 0.00 4.67 0.00 84 1017.3
20260502063230 12 0.0 0.0 0.00 4.67 0.00 84 1017.3
20260502062229 12 0.0 0.0 0.00 4.67 0.00 84 1017.3
20260502061228 12 0.0 0.0 0.00 4.67 0.00 83 1016.9
20260502060226 12 0.0 0.0 0.00 4.67 0.00 83 1016.9
20260502055225 12 0.0 0.0 0.00 4.67 0.00 82 1016.9
20260502054142 13 0.0 0.0 0.00 4.72 0.00 82 1017.3
20260502053140 13 0.0 0.0 0.00 4.78 0.00 82 1017.3
20260502052139 13 0.0 0.0 0.00 5.03 0.00 82 1017.3
20260502051138 13 0.0 0.0 0.00 5.23 0.00 82 1017.3
20260502050137 13 0.0 0.0 0.00 5.28 0.00 82 1017.3
20260502045136 13 0.0 0.0 0.00 5.28 5.28 82 1016.6
20260502044135 13 0.0 0.0 0.00 5.28 5.28 81 1016.6
20260502043134 13 0.0 0.0 0.00 5.28 5.28 81 1016.6
20260502042133 13 0.0 0.0 0.00 5.28 5.28 80 1015.9
20260502041132 13 0.0 0.0 0.00 5.28 5.28 80 1016.6
20260502040130 13 0.0 0.0 0.00 5.28 5.28 80 1016.6
20260502035129 14 0.0 0.0 0.00 5.28 5.28 80 1016.6
20260502034128 14 0.0 0.0 0.00 5.28 5.28 80 1016.3
20260502033127 14 0.0 0.0 0.00 5.28 5.28 80 1016.3
20260502032121 15 0.0 0.0 0.00 5.28 5.28 81 1016.6
20260502031120 15 0.0 0.0 0.00 5.28 5.28 80 1016.3
20260502030112 15 0.0 0.0 0.00 5.28 5.28 80 1015.9
20260502025111 15 0.0 0.0 0.00 5.28 5.28 80 1015.9
20260502024110 15 0.0 0.0 0.00 5.28 5.28 80 1015.9
20260502023109 15 0.0 0.0 0.00 5.28 5.28 80 1015.6
20260502022108 15 0.0 0.0 0.00 5.28 5.28 80 1015.6
20260502021106 15 0.0 0.0 0.00 5.28 5.28 80 1015.2
20260502020105 16 0.0 0.0 0.00 5.28 5.28 80 1014.9
20260502015104 16 0.0 0.0 0.00 5.28 5.28 80 1014.9
20260502014103 16 0.0 0.0 0.00 5.28 5.28 79 1014.6
20260502013102 16 0.0 0.0 0.00 5.28 5.28 79 1014.6
20260502012101 16 0.0 0.0 0.00 5.28 5.28 79 1014.2
20260502011059 16 0.0 0.0 0.00 5.28 5.28 79 1014.2
20260502010058 16 0.0 0.0 0.00 5.28 5.28 79 1013.9
20260502005057 17 0.0 0.0 0.00 5.28 5.28 78 1013.5
20260502004014 17 0.0 0.0 0.00 5.28 5.28 78 1013.2
20260502003012 17 0.0 0.0 0.00 5.28 5.28 78 1013.2
20260502002011 17 0.0 0.0 0.00 5.28 5.28 78 1012.9
20260502001010 17 0.0 0.0 0.00 5.28 5.28 78 1012.5
20260502000009 18 0.0 0.0 0.00 5.28 5.28 77 1012.5
20260501235008 18 0.0 0.0 0.00 5.28 5.28 77 1012.5
20260501233925 18 0.0 0.0 0.00 5.28 5.28 77 1012.2
20260501232841 18 0.0 0.0 0.00 5.28 5.28 76 1012.2
20260501231758 19 0.0 0.0 0.00 5.28 5.28 75 1011.9
20260501230715 20 0.0 0.0 0.00 5.28 5.28 76 1011.9
20260501225714 20 0.0 0.0 0.00 5.28 5.28 76 1011.5
20260501224713 20 0.0 0.0 0.00 5.28 5.28 76 1011.2
20260501223712 20 0.0 0.0 0.00 5.28 5.28 78 1011.2
20260501222710 20 0.0 0.0 0.00 5.28 5.28 78 1011.2
20260501221709 20 0.0 0.0 0.00 5.28 5.28 78 1011.2
20260501220708 20 0.0 0.0 0.00 5.28 5.28 79 1010.8
20260501215706 20 0.0 0.0 0.00 5.28 5.28 79 1010.8
20260501214705 20 0.0 0.0 0.00 5.28 5.28 79 1011.2
20260501213704 20 0.0 0.0 0.00 5.28 5.28 79 1011.2
20260501212702 20 0.0 0.0 0.00 5.28 5.28 79 1011.2
20260501211701 20 0.0 0.0 0.00 5.28 5.28 79 1011.5
20260501210700 20 0.0 0.0 0.00 5.28 5.28 81 1010.8
20260501205659 20 0.0 0.0 0.00 5.28 5.28 80 1011.2
20260501204658 20 0.0 0.0 0.00 5.28 5.28 79 1011.2
20260501203657 20 0.0 0.0 0.05 5.28 5.28 81 1011.2
20260501202656 20 0.0 0.0 0.05 5.28 5.28 82 1011.2
20260501201655 20 0.0 0.0 0.05 5.28 5.28 82 1011.2
20260501200654 20 0.0 0.0 0.05 5.28 5.28 81 1011.2
20260501195652 21 0.0 0.0 0.05 5.28 5.28 81 1011.2
20260501194651 21 0.0 0.0 0.05 5.28 5.28 80 1010.8
20260501193650 21 0.0 0.0 0.00 5.23 5.23 78 1010.5
20260501192649 22 0.0 0.0 0.00 5.23 5.23 77 1010.8
20260501191647 22 0.0 0.0 0.00 5.23 5.23 77 1010.2
20260501190646 22 0.0 0.0 0.00 5.23 5.23 78 1009.8
20260501185645 22 0.0 0.0 0.00 5.23 5.23 78 1009.8
20260501184644 22 0.0 0.0 0.00 5.23 5.23 79 1009.8
20260501183643 23 0.0 0.0 0.00 5.23 5.23 80 1009.8
20260501182641 22 0.0 0.0 0.00 5.23 5.23 83 1010.2
20260501181640 21 0.0 0.0 0.00 5.23 5.23 85 1010.5
20260501180639 21 0.0 0.0 0.00 5.23 5.23 88 1011.2
20260501175638 19 0.0 0.0 0.00 5.23 5.23 88 1011.5
20260501174637 18 0.0 0.0 0.00 5.23 5.23 87 1011.5
20260501173636 18 0.0 0.0 0.10 5.23 5.23 87 1011.2
20260501172634 19 0.0 0.0 0.69 5.23 5.23 87 1011.2
20260501171633 20 0.0 0.0 0.89 5.23 5.23 87 1011.9
20260501170632 20 0.0 0.0 0.89 5.23 5.23 88 1011.5
20260501165631 19 0.0 0.0 0.89 5.23 5.23 89 1011.5
20260501164548 18 0.0 0.0 0.89 5.23 5.23 88 1011.5
20260501163505 17 0.0 0.0 0.58 4.93 4.93 87 1010.5
20260501162504 18 0.0 0.0 0.00 4.34 4.34 86 1011.5
20260501161503 18 0.0 0.0 0.00 4.34 4.34 86 1009.8
20260501160501 18 0.0 0.0 0.00 4.34 4.34 86 1008.8
20260501155500 18 0.0 0.0 0.00 4.34 4.34 86 1009.5
20260501154459 19 0.0 0.0 0.00 4.34 4.34 86 1009.8
20260501153458 20 0.0 0.0 0.00 4.34 4.34 86 1010.2
20260501152456 19 0.0 0.0 0.00 4.34 4.34 88 1009.8
20260501151455 18 0.0 0.0 0.00 4.34 4.34 89 1010.2